Location: Bay Shore Mobile Home Park
(38.5762°N, 75.0841°W)
Time: 06:20:54
(UTC+00:00)

ACS3 Solar Sail - Visible Passes

Search period start: 11 October 2024 00:00
Search period end: 21 October 2024 00:00
Orbit: 960 x 1036 km, 97.4° (Epoch: 10 October)

Date Brightness Start Highest point End Pass type
(mag) Time Alt. Az. Time Alt. Az. Time Alt. Az.
11 Oct 2.0 00:27:57 49° E 00:28:26 50° ENE 00:34:31 10° N visible
11 Oct 3.7 02:13:06 25° W 02:13:06 25° W 02:17:38 10° NW visible
11 Oct 3.4 23:14:51 12° E 23:16:52 14° ENE 23:19:56 10° NNE visible
12 Oct 1.8 00:59:59 86° NNE 00:59:59 86° NNE 01:06:14 10° N visible
12 Oct 4.4 02:45:08 12° W 02:45:08 12° W 02:47:06 10° WNW visible
12 Oct 2.8 23:46:51 24° E 23:47:55 25° ENE 23:52:55 10° NNE visible
13 Oct 2.6 01:32:00 50° W 01:32:00 50° W 01:37:36 10° NNW visible
14 Oct 2.1 00:18:51 44° ENE 00:19:08 44° ENE 00:25:05 10° N visible
14 Oct 3.6 02:04:00 27° W 02:04:00 27° W 02:08:28 10° NW visible
14 Oct 3.5 23:05:43 11° ENE 23:07:38 12° ENE 23:09:55 10° NE visible
15 Oct 1.8 00:50:51 76° NE 00:50:51 76° NE 00:56:50 10° N visible
15 Oct 4.3 02:36:00 14° WNW 02:36:00 14° WNW 02:38:23 10° NW visible
15 Oct 2.9 23:37:42 22° ENE 23:38:37 22° ENE 23:43:16 10° NNE visible
16 Oct 2.4 01:22:51 54° WNW 01:22:51 54° WNW 01:28:15 10° NNW visible
17 Oct 2.3 00:09:41 39° ENE 00:09:46 39° ENE 00:15:32 10° N visible
17 Oct 3.4 01:54:49 30° WNW 01:54:49 30° WNW 01:59:13 10° NNW visible
17 Oct 3.6 22:57:23 10° ENE 22:58:19 10° ENE 22:59:14 10° NE visible
18 Oct 1.8 00:41:39 66° NE 00:41:39 66° NE 00:47:20 10° N visible
18 Oct 4.2 02:26:47 16° WNW 02:26:47 16° WNW 02:29:24 10° NW visible
18 Oct 3.1 23:28:28 19° ENE 23:29:14 20° ENE 23:33:30 10° NNE visible
19 Oct 2.3 01:13:37 57° NW 01:13:37 57° NW 01:18:47 10° NNW visible
20 Oct 2.4 00:00:25 34° ENE 00:00:25 34° ENE 00:05:52 10° N visible
20 Oct 3.3 01:45:34 32° WNW 01:45:34 32° WNW 01:49:51 10° NNW visible
